Hourly Data Report for October 11, 2015

All times are specified in Local Standard Time (LST). Add 1 hour to adjust for Daylight Saving Time where and when it is observed.

RANKIN INLET A
NUNAVUT

62°48'38.000" N
92°06'53.000" W
32.30 m
2303405
71083
YRT

Download Data

Hourly Data (October 2015)
Hourly Data Report for October 11, 2015
Temp Definition
°C
Dew Point Temp Definition
°C
Rel Hum Definition
%
Wind Dir Definition
10's deg

Wind Spd Definition
km/h
Visibility Definition
km
Stn Press Definition
kPa
Hmdx Definition


Wind Chill Definition


Weather Definition


TIME
00:00 Legend Double Dagger -2.0 -5.2 79 12 40 16.1 99.72   -10 Snow,Blowing Snow
01:00 Legend Double Dagger -1.8 -7.0 68 12 41 16.1 99.68   -10 Snow,Blowing Snow
02:00 Legend Double Dagger -1.5 -9.0 57 12 35 24.1 99.66   -9 Snow,Blowing Snow
03:00 Legend Double Dagger -1.2 -8.2 59 11 31 24.1 99.64   -8 Snow,Blowing Snow
04:00 Legend Double Dagger -1.3 -6.9 66 11 36 24.1 99.65   -9 Snow,Blowing Snow
05:00 Legend Double Dagger -1.1 -7.1 64 11 39 24.1 99.66   -9 Snow,Blowing Snow
06:00 Legend Double Dagger -1.4 -4.8 78 10 29 24.1 99.66   -8 Snow,Blowing Snow
07:00 Legend Double Dagger -1.7 -5.4 76 9 41 16.1 99.63   -10 Snow,Blowing Snow
08:00 Legend Double Dagger -1.5 -6.7 68 10 36 16.1 99.63   -9 Snow,Blowing Snow
09:00 Legend Double Dagger -1.6 -7.0 67 9 41 24.1 99.69   -10 Snow,Blowing Snow
10:00 Legend Double Dagger -1.6 -6.4 70 8 35 24.1 99.73   -9 Snow,Blowing Snow
11:00 Legend Double Dagger -1.7 -6.5 70 8 30 24.1 99.78   -9 Snow,Blowing Snow
12:00 Legend Double Dagger -1.8 -6.6 70 8 30 24.1 99.81   -9 Snow
13:00 Legend Double Dagger -2.1 -7.1 69 8 32 24.1 99.85   -9 Snow,Blowing Snow
14:00 Legend Double Dagger -2.5 -8.0 66 7 26 24.1 99.92   -9 Snow,Blowing Snow
15:00 Legend Double Dagger -2.7 -8.2 66 8 33 24.1 99.94   -10 Snow
16:00 Legend Double Dagger -2.7 -8.2 66 8 28 24.1 99.95   -10 Snow
17:00 Legend Double Dagger -2.8 -7.5 70 8 22 24.1 100.00   -9 Snow
18:00 Legend Double Dagger -3.1 -6.4 78 7 24 24.1 100.03   -10 Cloudy
19:00 Legend Double Dagger -3.4 -6.7 78 6 23 24.1 100.08   -10 LegendNANA
20:00 Legend Double Dagger -3.4 -6.9 77 6 25 24.1 100.10   -10 LegendNANA
21:00 Legend Double Dagger -3.6 -7.2 76 6 21 24.1 100.12   -10 Cloudy
22:00 Legend Double Dagger -4.1 -7.2 79 4 22 24.1 100.19   -11 LegendNANA
23:00 Legend Double Dagger -4.4 -7.2 81 4 17 24.1 100.19   -10 LegendNANA

Notes on Data Quality.

Legend

  • E = Estimated
  • M = Missing
  • NA = Not Available
  • ‡ = Partner data that is not subject to review by the National Climate Archives
Date modified: